Location: B�hl
(48.6968°N, 8.1352°E)
Time: 06:52:00
(UTC+00:00)

Cosmos 1898 Rocket - Visible Passes

Search period start: 16 June 2021 00:00
Search period end: 26 June 2021 00:00
Orbit: 753 x 784 km, 74.0° (Epoch: 15 June)

Date Brightness Start Highest point End Pass type
(mag) Time Alt. Az. Time Alt. Az. Time Alt. Az.
16 Jun 3.5 01:13:38 10° NNW 01:18:51 66° WSW 01:23:23 13° S visible
16 Jun 6.0 22:55:41 10° N 22:58:56 16° NE 23:02:11 10° E visible
17 Jun 3.6 00:36:39 10° NNW 00:41:57 79° ENE 00:46:23 14° SSE visible
17 Jun 5.2 02:20:14 10° WNW 02:23:19 16° W 02:26:22 10° SW visible
17 Jun 6.2 22:19:49 10° NNE 22:21:31 11° NE 22:23:12 10° ENE visible
17 Jun 4.2 23:59:49 10° NNW 00:04:57 51° ENE 00:09:30 13° SE visible
18 Jun 4.6 01:42:27 10° NW 01:46:42 26° W 01:49:44 15° SW visible
18 Jun 4.9 23:23:05 10° N 23:27:50 33° NE 23:32:32 10° ESE visible
19 Jun 4.0 01:05:06 10° NW 01:10:00 41° WSW 01:12:55 22° SSW visible
19 Jun 5.5 22:46:28 10° N 22:50:37 23° NE 22:54:43 10° ESE visible
20 Jun 3.5 00:27:59 10° NNW 00:33:12 67° WSW 00:36:10 25° S visible
20 Jun 5.9 22:10:05 10° N 22:13:17 16° NE 22:16:28 10° E visible
20 Jun 3.5 23:51:02 10° NNW 23:56:18 78° ENE 23:59:29 24° SSE visible
21 Jun 5.2 01:34:34 10° WNW 01:37:41 16° W 01:39:43 13° WSW visible
21 Jun 6.1 21:34:16 10° NNE 21:35:51 11° NE 21:37:26 10° NE visible
21 Jun 4.2 23:14:11 10° NNW 23:19:18 50° ENE 23:22:50 19° SE visible
22 Jun 4.7 00:56:48 10° NW 01:01:04 26° W 01:03:05 20° SW visible
22 Jun 4.8 22:37:27 10° N 22:42:11 33° NE 22:46:14 13° ESE visible
23 Jun 4.1 00:19:28 10° NW 00:24:21 41° WSW 00:26:29 28° SSW visible
23 Jun 5.4 22:00:51 10° N 22:04:57 23° NE 22:09:01 10° ESE visible
23 Jun 3.5 23:42:21 10° NNW 23:47:33 67° WSW 23:49:54 32° S visible
24 Jun 5.8 21:24:28 10° N 21:27:37 16° NE 21:30:45 10° E visible
24 Jun 3.5 23:05:23 10° NNW 23:10:39 77° ENE 23:13:23 29° SSE visible
25 Jun 5.2 00:48:53 10° WNW 00:52:02 16° W 00:53:38 14° WSW visible
25 Jun 6.0 20:48:42 10° NNE 20:50:11 11° NE 20:51:39 10° NE visible
25 Jun 4.1 22:28:33 10° NNW 22:33:38 49° ENE 22:36:54 21° SE visible
